Regional Weather Roundup
Issued by NWS

Home | Current Version | Previous Version | Graphics & Text | Print | Product List | Glossary On
Versions: 1 2 3 4 5 6 7 8 9 10 11 12 13 14 15 16 17 18 19 20 21 22 23 24 25 26 27 28 29 30 31 32 33 34 35 36 37 38 39 40 41 42 43 44 45 46 47 48 49 50
000
ASUS43 KOAX 202110
RWRNE

WEATHER ROUNDUP FOR NEBRASKA
NATIONAL WEATHER SERVICE OMAHA NE
400 PM CDT THU JUL 20 2017

NOTES: SATELLITE DATA IS BEING USED TO AUGMENT CLOUD COVER ABOVE
       12000 FEET.
       "FAIR" INDICATES FEW OR NO CLOUDS BELOW 12,000 FEET WITH NO
       SIGNIFICANT WEATHER AND/OR OBSTRUCTIONS TO VISIBILITY.


NEZ001>004-019>022-054>056-202200-
NEBRASKA PANHANDLE

CITY           SKY/WX    TMP DP  RH WIND       PRES   REMARKS
SCOTTSBLUFF    SUNNY     91  59  33 E13       30.07F HX  90
ALLIANCE       MOSUNNY   91  60  35 E8        30.07F HX  90
CHADRON        SUNNY     93  56  28 SE12      30.01F HX  91
KIMBALL        SUNNY     91  56  30 CALM      30.13F
SIDNEY         MOSUNNY   92  56  29 E13G20    30.11F HX  90
$$

NEZ057>060-069>072-079>082-202200-
SOUTHWEST NEBRASKA

CITY           SKY/WX    TMP DP  RH WIND       PRES   REMARKS
NORTH PLATTE   SUNNY     92  68  45 SE15      30.00F HX  96
IMPERIAL       SUNNY     98  52  21 E6        29.98F HX  95
LEXINGTON      MOSUNNY   88  72  59 E9        29.99F HX  94
MCCOOK         PTSUNNY  103  55  20 SW12      29.94F HX 101
OGALLALA       SUNNY     92  60  34 SE12      30.04F HX  91
$$

NEZ005>010-023>029-035>040-094-202200-
NORTH CENTRAL NEBRASKA

CITY           SKY/WX    TMP DP  RH WIND       PRES   REMARKS
VALENTINE      MOSUNNY   99  55  23 SE13      29.99F HX  97
AINSWORTH      SUNNY     90  64  42 SE10      30.03F HX  91
BROKEN BOW     MOSUNNY   91  70  49 E16G25    30.01S HX  96
O`NEILL        MOSUNNY   84  74  70 E6        30.02F HX  91
ORD            CLOUDY    89  67  47 E12       29.98F HX  92
THEDFORD       SUNNY     90  63  40 SE14G20   30.05S HX  91
$$

NEZ041-046>049-061>064-073>077-083>087-202200-
SOUTH CENTRAL NEBRASKA

CITY           SKY/WX    TMP DP  RH WIND       PRES   REMARKS
GRAND ISLAND   PTSUNNY   88  75  65 E9        29.99S HX  97
AURORA         MOSUNNY   88  76  67 SE7       29.98F HX  98
HASTINGS       CLOUDY    92  73  53 E6        29.98F HX 100
HEBRON         MOSUNNY   96  73  47 E8        29.95F HX 106
HOLDREGE       MOSUNNY   89  72  57 E8        29.98F HX  95
KEARNEY        MOSUNNY   88  75  65 NE10      29.99F HX  97
YORK           CLOUDY    90  73  58 CALM      29.98S HX  98
$$

NEZ011>018-030>034-042>045-202200-
NORTHEAST NEBRASKA

CITY           SKY/WX    TMP DP  RH WIND       PRES   REMARKS
NORFOLK        CLOUDY    86  74  67 E6        29.97S HX  94
ALBION         CLOUDY    92  72  51 E10       29.99S HX  98
BLAIR          SUNNY     95  74  49 SE5       29.95F HX 106
COLUMBUS       CLOUDY    92  76  59 E12       29.97F HX 104
FREMONT        PTSUNNY   93  70  48 CALM      29.97R HX  99
TEKAMAH        SUNNY     95  72  47 E5        29.94F HX 103
WAYNE          CLOUDY    83  83  98 NE9       29.98F HX 100
$$

NEZ050>053-065>068-078-088>093-202200-
SOUTHEAST NEBRASKA

CITY           SKY/WX    TMP DP  RH WIND       PRES   REMARKS
LINCOLN        SUNNY     95  74  50 S10       29.95F HX 105
OMAHA EPPLEY   MOSUNNY   97  71  42 SE6       29.94F HX 104
BEATRICE       SUNNY     97  74  48 S6        29.96F HX 108
FALLS CITY     SUNNY     96  77  54 SE12      29.94F HX 111
NEBRASKA CITY  MOSUNNY   93  79  64 SW8       29.96F HX 110
PLATTSMOUTH    MOSUNNY   92  74  55 S7        29.96F HX 102
$$

NEZ044-045-051>053-067-202200-
OMAHA AREA

CITY           SKY/WX    TMP DP  RH WIND       PRES   REMARKS
OMAHA EPPLEY   MOSUNNY   97  71  42 SE6       29.94F HX 104
BLAIR          SUNNY     95  74  49 SE5       29.95F HX 106
FREMONT        PTSUNNY   93  70  48 CALM      29.97R HX  99
MILLARD        SUNNY     96  76  50 SE7       29.94F HX 109
OFFUTT AFB     SUNNY     93  76  56 S7        29.94F HX 105
PLATTSMOUTH    MOSUNNY   92  74  55 S7        29.96F HX 102
WAHOO          FAIR      92  72  51 CALM      29.96S HX  99
$$



USA.gov is the U.S. government's official web portal to all federal, state and local government web resources and services.